TIANWANG 1B (TW-1B)
1 40927U 15051C   19037.44302714  .00009995  00000-0  17043-3 0  9999
2 40927  97.1590  83.5244 0009799 142.8645 342.3634 15.51496786189493
TIANWANG 1A (TW-1A)
1 40928U 15051D   19037.49826068  .00003450  00000-0  88540-4 0  9999
2 40928  97.1612  71.6836 0011032 183.6888 315.7235 15.39940929188825
LAPAN A2
1 40931U 15052B   19034.12703952  .00000715  00000-0  10589-4 0  9996
2 40931   5.9971 303.2279 0013133  35.0098 325.1687 14.76596938181192
LQSAT
1 40958U 15057A   19037.44699229  .00000009  00000-0  91824-5 0  9997
2 40958  97.9155 110.1143 0017218 309.1260  50.8418 14.73065842179334
CHUBUSAT 2
1 41338U 16012B   19036.94596600 +.00000306 +00000-0 +17080-4 0  9996
2 41338 031.0026 268.3492 0013991 228.8414 131.1014 15.00090517162962
CHUBUSAT 3
1 41339U 16012C   19037.33035303  .00000306  00000-0  17043-4 0  9998
2 41339  31.0102 264.1795 0013844 240.1922 119.7342 15.00270388163015
OUFTI-1
1 41458U 16025C   19037.46570706  .00001643  00000-0  87151-4 0  9991
2 41458  98.1125 117.6016 0169608  81.6307 280.4093 15.05394625152685
E-STAR-2
1 41459U 16025D   19037.45222461  .00001069  00000-0  58595-4 0  9995
2 41459  98.1112 117.3241 0170711  82.6452 279.4128 15.05062562152654
AAUSAT 4
1 41460U 16025E   19037.45217645  .00001865  00000-0  97511-4 0  9990
2 41460  98.1062 118.2569 0160729  76.7090 285.2002 15.06777574152757
NUSAT 1
1 41557U 16033B   19037.54519899  .00001241  00000-0  49718-4 0  9996
2 41557  97.4242 125.8274 0015152  49.6451 310.6108 15.26853629149925
BEESAT 4
1 41619U 16040W   19036.92252021 +.00001335 +00000-0 +60077-4 0  9990
2 41619 097.3860 101.5247 0012855 125.9936 234.2495 15.22748419133652
PRATHAM
1 41783U 16059A   19036.64094296  .00000047  00000-0  18416-4 0  9998
2 41783  98.0871  99.0343 0034883  82.8670 277.6497 14.62971008126091
ALSAT 1N
1 41789U 16059G   19037.42612210  .00000087  00000-0  25425-4 0  9995
2 41789  98.0892 101.5149 0029672  71.0014 289.4403 14.64214382126292
NAYIF 1
1 42017U 17008BX  19037.37795900  .00001388  00000-0  58301-4 0  9991
2 42017  97.4201 105.7572 0004668 276.8873  83.1834 15.25118004109757
LILACSAT-1
1 42725U 98067ME  19037.39693497  .00123257  16767-4  38615-3 0  9997
2 42725  51.6313 229.1558 0000981  90.0157 337.9769 15.91275527 97490
MAX VALIER SAT
1 42778U 17036P   19037.17308184  .00000830  00000-0  39607-4 0  9997
2 42778  97.3734  97.6446 0011609 336.5300  23.5404 15.21751152 90081
